Content
SEND FEEDBACK

Daily
Averages
Monthly
Summary
United States of America

ST. LOUIS, MISSOURI


Home > North America > United States > Missouri
Elevation: 535 feet     Latitude: 38 45N     Longitude: 090 22W

WEATHER
 
SELECT A DAY
Number of Records: 196,207;   Date Range: 1/1/95 - 7/7/14
 
SHARE

PRINT THIS DATA

[ ← Previous Day ]
WEATHER ALMANAC - MARCH 12, 2013
[ Next Day → ]
[ °C ]   °F
Weather ElementAverageHighLow
Temperature37.2 °F50 °F (2:54 pm)28 °F (3:54 am)
Dewpoint23.4 °F26.1 °F (11:54 am)21 °F (11:54 pm)
Humidity59.7 %81 % (3:54 am)36 % (1:54 pm)
Barometer30.13 in30.24 in (11:54 pm)30.04 in (1:54 am)
Wind Speed12.7 mph24.2 mph (2:54 pm)
Wind Gust33.4 mph (1:54 pm)
Weather ElementAverage
Visibility10 mi
Wind DirectionWNW (275.7 °)

Weather ElementTotal
Precipitation---
Heating Degree Days26 (Base 65)
Averaged from 23 records on March 12, 2013
WEATHER CONDITIONS BREAKOUT
WIND DIRECTION BREAKOUT
WEATHER BY HOUR - MARCH 12, 2013
[ °C ]   °F
Local TimeTemperatureDewpointHumidityBarometerVisibilityWind DirectionWind SpeedGust SpeedPrecipitationEventsConditions
1:54 AM28.9 °F23.0 °F78 %30.04 in10.0 miWSW (250°)5.8 mphClear
2:54 AM28.9 °F23.0 °F78 %30.05 in10.0 miWest (260°)6.9 mphClear
3:54 AM28.0 °F23.0 °F81 %30.05 in10.0 miWest (260°)8.1 mphClear
4:54 AM28.9 °F23.0 °F78 %30.06 in10.0 miWest (260°)6.9 mphClear
5:54 AM28.9 °F23.0 °F78 %30.08 in10.0 miWest (260°)9.2 mphClear
6:54 AM28.9 °F23.0 °F78 %30.09 in10.0 miWest (260°)6.9 mphClear
7:54 AM30.0 °F24.1 °F79 %30.12 in10.0 miWest (270°)6.9 mphClear
8:54 AM32.0 °F25.0 °F75 %30.13 in10.0 miWest (260°)8.1 mphClear
9:54 AM34.0 °F24.1 °F67 %30.15 in10.0 miWest (260°)10.4 mphMostly Cloudy
10:54 AM37.9 °F21.9 °F53 %30.14 in10.0 miWSW (250°)10.4 mphClear
11:54 AM43.0 °F26.1 °F51 %30.14 in10.0 miWest (270°)11.5 mphScattered Clouds
12:54 PM46.0 °F26.1 °F46 %30.13 in10.0 miWSW (250°)10.4 mphScattered Clouds
1:54 PM48.0 °F21.9 °F36 %30.10 in10.0 miNW (310°)16.1 mph33.4 mphPartly Cloudy
2:54 PM50.0 °F25.0 °F38 %30.09 in10.0 miWSW (250°)24.2 mph29.9 mphMostly Cloudy
3:54 PM48.0 °F23.0 °F37 %30.09 in10.0 miWNW (290°)16.1 mph31.1 mphMostly Cloudy
4:54 PM46.9 °F21.9 °F37 %30.10 in10.0 miWest (280°)24.2 mph29.9 mphMostly Cloudy
5:54 PM44.1 °F25.0 °F47 %30.12 in10.0 miNW (310°)19.6 mph26.5 mphMostly Cloudy
6:54 PM41.0 °F24.1 °F51 %30.16 in10.0 miNW (320°)20.7 mph31.1 mphScattered Clouds
7:54 PM39.0 °F21.9 °F50 %30.18 in10.0 miWNW (300°)13.8 mph24.2 mphClear
8:54 PM37.0 °F23.0 °F57 %30.19 in10.0 miWNW (290°)9.2 mphClear
9:54 PM36.0 °F24.1 °F62 %30.22 in10.0 miWNW (290°)13.8 mphClear
10:54 PM36.0 °F21.9 °F57 %30.23 in10.0 miWNW (300°)17.3 mph27.6 mphOvercast
11:54 PM34.0 °F21.0 °F59 %30.24 in10.0 miWNW (290°)15.0 mph21.9 mphScattered Clouds
Hourly data recorded from KSUS, located miles away from St. Louis, Missouri







STORIES FROM OUR PARTNERS